Flag for Canada Weather past 2 weeks in Rae-Edzo, Northwest Territories, Canada

Now
32 °F

Chilly.


Feels Like: 27 °F
Forecast: 32 / 37 °F
Wind: 5 mph from East

Location: Lac La Martre

Current Time: Oct 23, 2014 at 8:47:32 AM

Latest Report: Oct 23, 2014 at 8:00 AM


Visibility: N/A

Pressure: 29.51 "Hg

Humidity: 100%

Dew point: 32 °F

Location of Rae-EdzoLocation

Historic Weather in Rae-Edzo — Graph

°F

Rae-Edzo temperature yesterday

Maximum temperature yesterday: 31 °F (at 11:00 PM)
Minimum temperature yesterday: 24 °F (at 7:00 AM)
Average temperature yesterday: 28 °F

Past Weeks' High & Low Weather Summary

 TemperatureHumidityPressure
High42 °F (Oct 10, 4:00 PM)100% (Oct 17, 6:00 AM)30.30 "Hg (Oct 17, 6:00 AM)
Low22 °F (Oct 15, 8:00 AM)60% (Oct 8, 2:00 PM)29.20 "Hg (Oct 11, 9:00 AM)
Average32 °F90%29.77 "Hg
* Reported Oct 8 7:00 AM — Oct 23 7:00 AM, Rae-Edzo, Weather by CustomWeather, © 2014

Note: Actual official high and low records may vary slightly from our data, if they occured in-between our weather recording intervals... More about our weather records

Advertising

Rae-Edzo weather history for previous 24 hours

 ConditionsComfort  
Time TempWeatherWind HumidityBarometerVisibility
7:00 AM
Oct 23
31 °FChilly.3 mph100%29.51 "HgN/A
6:00 AM31 °FChilly.5 mph98%29.52 "HgN/A
5:00 AM33 °FChilly.5 mph91%29.53 "HgN/A
4:00 AM31 °FChilly.5 mph96%29.55 "HgN/A
3:00 AM32 °FChilly.7 mph96%29.57 "HgN/A
2:00 AM32 °FChilly.10 mph100%29.59 "HgN/A
1:00 AM32 °FChilly.13 mph97%29.62 "HgN/A
12:00 AM32 °FChilly.14 mph95%29.65 "HgN/A
11:00 PM
Oct 22
31 °FChilly.12 mph95%29.68 "HgN/A
10:00 PM31 °FChilly.13 mph96%29.71 "HgN/A
9:00 PM31 °FChilly.10 mph96%29.73 "HgN/A
8:00 PM30 °FChilly.9 mph97%29.75 "HgN/A
7:00 PM30 °FChilly.9 mph96%29.76 "HgN/A
6:00 PM30 °FChilly.10 mph93%29.78 "HgN/A
5:00 PM31 °FChilly.10 mph90%29.78 "HgN/A
4:00 PM31 °FChilly.9 mph88%29.78 "HgN/A
3:00 PM31 °FChilly.7 mph85%29.79 "HgN/A
2:00 PM29 °FChilly.8 mph89%29.79 "HgN/A
1:00 PM28 °FChilly.7 mph94%29.79 "HgN/A
12:00 PM27 °FChilly.6 mph95%29.80 "HgN/A
11:00 AM26 °FChilly.6 mph96%29.80 "HgN/A
10:00 AM25 °FCold.5 mph96%29.79 "HgN/A
9:00 AM24 °FCold.2 mph98%29.80 "HgN/A
8:00 AM24 °FCold.2 mph98%29.78 "HgN/A
Weather by CustomWeather, © 2014

See weather overviewHow to use our weather pages